Probability
0 0 0 1 0 0 0 0 0 0 0 0 0 0 0 0 0 0 0 0 0 0 0 0 0 0 0 0 0 0 1 2 2 3 4 4 4 4 4 4 6 6 6
0 0 0 1 1 0 0 0 0 0 0 0 0 0 0 0 0 0 0 0 0 0 0 0 0 0 0 0 0 0 1 2 3 3 4 4 4 4 4 4 5 6 6
0 0 0 1 2 1 0 0 0 0 0 0 0 0 0 0 0 0 0 0 0 0 0 0 0 0 0 0 0 0 0 1 3 3 3 4 5 5 4 4 4 5 6
1 0 1 2 3 4 2 0 0 0 0 0 0 0 0 0 0 0 0 0 0 0 0 0 0 0 0 0 0 0 0 1 2 3 3 4 6 6 5 4 3 4 4
1 1 2 3 5 5 3 1 0 0 0 0 0 0 0 0 0 0 0 0 0 0 0 0 0 0 0 0 0 0 0 0 1 2 3 4 5 6 5 3 3 3 3
1 2 3 4 5 5 3 1 0 0 0 0 0 0 0 0 0 0 0 0 0 0 0 0 0 0 0 0 0 0 0 0 0 1 1 2 4 5 3 2 2 3 3
1 2 3 3 5 4 2 1 0 0 0 0 0 0 0 0 0 0 0 0 0 0 0 0 0 0 0 0 0 0 0 0 0 0 0 1 3 3 2 2 2 2 2
1 1 1 2 4 4 2 1 0 0 0 0 0 0 0 0 0 0 0 0 0 0 0 0 0 0 0 0 0 0 0 0 0 0 0 1 2 1 1 2 2 1 1
2 2 1 1 2 2 3 2 1 0 0 0 0 0 0 0 0 0 0 0 0 0 0 0 0 0 0 0 0 0 0 0 0 0 1 2 2 1 0 1 1 0 0
1 1 1 1 1 1 2 3 2 0 0 0 0 0 0 0 0 0 0 0 0 0 0 0 0 0 0 0 0 0 0 0 0 0 1 1 1 0 0 0 0 0 0
0 0 0 0 0 0 1 2 1 1 1 0 0 0 0 0 0 0 0 0 0 0 0 0 0 0 0 0 0 0 0 0 0 0 0 0 0 0 0 0 0 0 0
0 0 0 0 0 0 0 0 1 1 1 0 0 0 0 0 0 0 0 0 0 0 0 0 0 0 0 0 0 0 0 0 0 0 0 0 0 0 0 0 0 0 0
0 0 0 0 0 0 0 0 1 1 1 0 0 0 0 0 0 0 0 0 0 0 0 0 0 0 0 0 0 0 0 0 0 0 0 0 0 0 0 0 0 0 0
0 0 0 0 0 0 0 0 1 0 0 0 0 0 0 0 0 0 0 0 0 0 0 0 0 0 0 0 0 0 0 0 0 0 0 0 0 0 0 0 0 0 0
0 0 0 0 0 0 0 0 0 0 0 0 0 0 0 0 0 0 0 0 0 0 0 0 0 0 0 0 0 0 0 0 0 0 0 0 0 0 0 0 0 0 0
0 0 0 0 0 0 0 0 0 0 0 0 0 0 0 0 0 0 0 0 0 0 0 0 0 0 0 0 0 0 0 0 0 0 0 0 0 0 0 0 0 0 0
0 0 0 0 0 0 0 0 0 0 0 0 0 0 0 0 0 0 0 0 0 0 0 0 0 0 0 0 0 0 0 0 0 0 0 0 0 0 0 0 0 0 0
0 0 0 0 0 0 0 0 0 0 0 0 0 0 0 0 0 0 0 0 0 0 0 0 0 0 0 0 0 0 0 0 0 0 0 0 0 0 0 0 0 0 0
0 0 0 0 0 0 0 0 0 0 0 0 0 0 0 0 0 0 0 0 0 0 0 0 0 0 0 0 0 0 0 0 0 0 0 0 0 0 0 0 0 0 0
0 0 0 0 0 0 0 0 0 0 0 0 0 0 0 0 0 0 0 0 0 0 0 0 0 0 0 0 0 0 0 0 0 0 0 0 0 0 0 0 0 0 0
0 0 0 0 0 0 0 0 0 0 0 0 0 0 0 0 0 0 0 0 0 0 0 0 0 0 0 0 0 0 0 0 0 0 0 0 0 0 0 0 0 0 0
0 0 0 0 0 0 0 0 0 0 0 0 0 0 0 0 0 0 0 0 0 0 0 0 0 0 0 0 0 0 0 0 0 0 0 0 0 0 0 0 0 0 0
0 0 0 0 0 0 0 0 0 0 0 0 0 0 0 0 0 0 0 0 0 0 0 0 0 0 0 0 0 0 0 0 0 0 0 0 0 0 0 0 0 0 0
0 0 0 0 0 0 0 0 0 0 0 0 0 0 0 0 0 0 0 0 0 0 0 0 0 0 0 0 0 0 0 0 0 0 0 0 0 0 0 0 0 0 0
1 1 0 0 0 0 0 0 0 0 0 0 0 0 0 0 0 0 0 0 0 0 0 0 0 0 0 0 0 0 0 0 0 0 0 0 0 0 0 0 0 0 0
2 2 1 0 0 0 0 0 0 0 0 0 0 0 0 0 0 0 0 0 0 0 0 0 0 0 0 0 0 0 0 0 0 0 0 0 0 0 0 0 0 0 0
Wind_Speed
2 2 2 2 2 1 1 1 2 3 3 4 4 5 5 6 5 5 4 9 10 10 10 10 11 11 11 11 11 10 10 9 9 9 9 9 8 7 7 7 7 7 6
2 2 2 2 1 1 2 2 3 2 3 3 4 4 4 4 5 5 4 6 9 9 10 10 10 10 10 9 9 10 11 10 9 9 9 8 7 7 7 7 7 6 6
3 3 2 2 2 2 2 2 3 2 3 3 3 4 4 4 4 5 4 3 4 7 9 9 9 9 8 9 9 10 10 10 9 9 9 8 8 7 7 7 6 6 6
4 3 2 2 2 2 2 2 2 2 2 2 2 2 2 2 3 3 3 3 3 4 5 7 7 8 8 8 9 9 10 10 9 8 8 8 8 8 7 7 7 6 6
4 3 2 2 2 2 2 2 2 2 1 1 1 1 2 2 2 3 3 3 3 3 3 4 5 6 7 7 8 8 8 9 9 9 8 7 7 7 7 7 7 6 6
3 3 2 2 3 2 2 2 2 1 1 0 1 2 1 2 2 2 2 3 3 3 3 3 3 3 5 6 6 7 7 8 8 8 7 6 6 6 7 6 7 7 7
2 2 2 2 2 2 1 2 2 2 2 1 2 1 1 1 2 2 2 2 2 2 3 3 2 2 2 4 6 6 6 7 7 7 7 7 7 7 6 6 6 6 6
2 2 2 2 1 1 2 1 1 1 1 2 1 1 1 2 1 1 2 2 2 2 2 3 3 3 3 2 4 6 6 6 6 6 7 7 7 7 7 7 6 6 6
1 2 2 2 1 2 1 1 2 1 1 1 1 2 1 0 1 1 1 2 2 2 1 2 2 3 4 3 3 4 6 6 5 6 6 6 6 7 7 7 6 6 6
1 1 1 1 1 1 1 1 2 1 1 1 1 1 1 2 1 1 2 1 2 2 2 2 2 3 4 3 4 6 6 6 5 5 6 6 6 7 6 6 6 6 6
1 1 1 1 1 1 1 1 2 1 1 0 0 1 2 1 0 1 0 1 1 1 1 1 2 2 3 3 3 5 6 5 5 5 5 6 6 6 6 6 6 5 5
0 1 1 1 1 1 1 1 1 1 0 0 0 1 1 0 0 1 0 0 0 1 0 1 2 2 2 3 4 6 5 4 5 5 5 5 5 5 5 6 5 5 5
1 1 1 0 0 0 1 1 0 1 1 0 0 0 0 1 1 1 1 0 0 1 0 1 1 2 3 3 3 5 4 4 4 4 4 4 4 4 4 5 4 4 5
1 2 1 1 0 0 0 0 0 0 0 0 0 0 0 1 0 0 1 1 0 1 0 0 0 2 2 2 3 4 3 4 3 3 3 3 4 4 4 4 4 4 4
1 1 1 1 1 0 0 0 0 0 0 0 0 0 0 1 1 0 1 2 2 1 1 1 0 1 1 2 3 3 3 3 2 2 2 2 3 3 3 3 3 3 4
2 2 2 1 1 1 1 1 0 0 0 0 1 1 1 1 0 0 1 1 1 2 2 1 0 1 1 1 3 2 3 4 3 2 1 1 2 2 3 3 2 3 3
1 2 1 1 0 0 1 1 0 1 0 1 1 1 1 1 0 0 0 0 0 1 1 1 0 1 1 1 1 2 2 2 2 2 2 1 0 1 1 2 2 2 2
1 1 1 1 1 1 1 0 1 1 1 1 1 0 1 0 0 0 0 0 0 1 1 1 1 1 1 2 2 2 2 2 2 2 3 2 1 0 0 1 1 1 2
1 0 1 1 1 1 0 0 1 1 1 1 1 1 1 1 1 0 0 0 1 0 0 1 1 1 1 1 1 1 1 1 2 2 3 2 1 1 1 1 0 1 1
1 1 1 0 0 0 1 1 1 1 1 1 1 1 1 0 1 1 1 0 0 0 0 0 1 1 1 1 1 1 1 1 1 1 1 1 1 2 1 1 1 0 0
2 1 2 2 1 1 1 1 1 1 1 1 1 1 1 0 0 0 0 1 1 1 1 1 1 1 0 0 1 1 1 1 1 1 1 1 1 1 1 2 2 1 1
2 2 2 2 1 1 2 2 1 2 2 1 1 2 1 1 1 1 0 1 1 2 2 2 2 2 2 2 1 1 1 1 1 1 1 1 1 1 1 1 2 2 2
2 2 2 2 2 1 1 1 1 2 2 2 2 2 2 1 2 1 1 2 2 3 4 3 3 3 3 3 2 2 1 1 2 2 1 1 1 1 2 1 3 3 3
1 1 1 2 2 3 3 2 2 1 2 2 2 2 1 0 1 1 2 1 1 2 3 2 3 3 3 3 3 3 2 1 0 1 1 1 1 2 2 1 2 3 3
1 1 1 1 2 2 2 2 2 2 2 2 2 1 0 0 2 2 1 1 1 2 2 1 0 2 2 2 2 2 1 1 1 2 1 1 1 1 2 2 3 4 4
1 1 1 1 2 2 2 2 1 1 1 2 2 1 1 2 3 2 0 1 1 1 1 1 1 1 1 2 2 3 3 3 1 1 1 1 1 0 1 2 1 2 2
Wind_Direction
95 89 82 72 71 66 51 31 51 58 52 47 52 58 56 65 74 81 77 77 79 77 75 71 68 64 62 58 54 54 54 58 65 69 70 69 69 66 65 66 66 61 64
99 97 93 74 64 64 59 45 54 56 66 62 58 62 63 69 77 90 94 80 78 79 77 73 68 65 62 61 59 57 57 56 64 68 66 65 64 63 66 68 67 62 64
94 89 85 75 56 49 55 51 47 41 70 73 69 68 65 63 78 84 91 97 84 81 83 78 73 68 64 62 59 57 57 56 62 64 61 60 59 60 63 66 67 64 63
96 88 84 79 72 58 46 56 66 51 60 65 64 63 75 69 74 87 90 95 97 91 83 84 79 74 68 62 59 58 57 54 60 62 60 58 58 59 61 59 59 59 59
95 96 88 83 81 70 48 39 58 53 65 66 99 94 93 94 83 86 87 89 94 101 101 94 86 82 73 65 59 59 59 56 54 56 57 57 56 56 57 56 56 50 49
80 90 87 74 75 73 56 44 48 37 61 68 68 79 102 117 98 86 84 86 89 103 112 109 104 87 78 68 61 60 59 57 52 48 51 52 52 55 56 55 55 50 46
87 99 91 82 79 85 75 66 51 36 27 42 61 39 28 107 110 107 98 88 84 87 104 111 114 112 94 75 62 63 58 58 53 48 46 46 46 47 48 48 49 47 44
77 96 100 101 101 97 81 74 86 69 18 41 77 87 36 13 3 104 117 109 95 83 93 98 93 96 102 89 69 61 53 53 53 51 45 43 42 41 39 41 42 48 47
62 69 90 88 90 96 109 114 84 82 67 358 44 87 107 199 308 331 105 106 106 92 78 84 85 85 95 94 89 58 56 54 54 53 48 46 44 44 42 39 39 45 50
62 73 94 107 102 86 79 66 77 74 96 26 350 18 78 133 131 306 340 59 93 88 82 74 78 86 87 88 89 78 67 58 57 55 49 44 43 42 43 43 40 44 45
58 85 59 76 95 97 99 78 72 56 65 98 48 358 18 17 43 123 308 347 32 51 108 99 85 86 92 95 94 82 73 63 58 54 46 42 41 39 39 39 41 43 42
111 78 61 61 86 118 120 102 105 111 108 32 41 55 86 71 344 107 166 271 12 295 91 91 91 97 96 92 98 97 86 75 60 49 42 39 36 34 33 33 36 38 38
126 131 111 248 278 93 107 109 102 152 169 154 166 209 193 233 204 147 122 262 309 284 64 93 129 124 116 110 112 114 106 97 80 54 37 31 32 27 25 25 28 30 36
153 155 152 169 137 40 30 101 81 166 136 132 131 223 244 265 304 138 153 151 14 341 24 223 153 123 126 131 136 137 125 115 104 78 48 30 23 18 19 21 26 28 27
147 129 131 184 179 141 314 90 70 196 127 162 198 224 239 240 238 207 168 154 152 192 278 251 46 119 121 119 146 153 146 136 129 101 69 39 24 16 14 14 22 17 13
154 159 178 196 174 176 213 83 22 295 129 196 193 225 268 273 263 185 191 201 156 170 217 233 213 175 139 142 153 146 151 144 138 136 131 64 26 20 19 14 10 6 8
163 145 158 143 114 105 69 65 330 308 256 250 260 219 241 213 264 175 247 261 203 158 194 256 227 162 136 151 144 165 160 163 162 164 170 166 348 17 18 13 10 16 17
119 143 151 149 138 88 67 91 289 300 289 286 280 264 273 242 67 11 229 238 218 213 168 218 249 220 205 191 180 186 169 166 165 172 180 182 199 231 6 356 15 25 22
1 139 177 164 160 172 157 289 268 274 280 301 304 291 282 222 193 240 255 231 226 245 159 183 230 223 233 216 179 179 147 157 167 172 185 199 212 237 239 265 304 21 14
355 355 5 103 117 101 57 31 5 328 335 338 328 326 332 319 246 217 212 242 231 164 163 171 215 230 236 222 146 164 172 203 207 174 173 201 219 227 243 247 239 206 125
7 2 3 20 38 46 38 26 341 308 302 305 314 293 275 329 358 22 123 211 205 209 197 188 204 237 199 151 194 184 178 211 260 192 168 219 207 225 250 254 241 218 209
12 8 3 11 11 29 27 34 6 304 292 286 287 287 273 249 287 324 243 231 208 207 215 208 206 204 211 205 199 183 169 160 269 253 164 234 179 199 234 215 202 197 215
28 23 8 359 353 340 344 357 345 315 299 293 279 274 297 326 4 312 275 268 268 248 228 214 213 214 202 200 182 189 205 209 228 225 152 252 229 225 252 245 192 193 207
32 11 359 345 336 342 353 357 336 311 300 295 287 270 251 296 328 360 295 271 279 283 258 229 211 220 205 187 185 189 197 189 240 260 142 203 246 237 246 247 221 207 214
3 338 343 325 309 318 341 339 354 317 312 305 307 318 306 253 1 27 340 270 279 304 314 344 196 225 221 210 185 136 135 138 261 269 234 170 223 249 247 239 242 228 223
330 332 311 294 299 309 326 320 326 305 300 309 312 321 18 354 352 14 306 249 242 281 313 334 345 337 258 205 192 170 169 173 184 242 233 161 212 191 273 260 239 232 229